Change the Weather History Date:

Friday, February 28, 2014

  Actual Average Record
Temperature  
Mean Temperature 52 °F 42 °F  
Max Temperature 70 °F 56 °F 87 °F (2006)
Min Temperature 34 °F 27 °F 9 °F (2002)
Degree Days  
Heating Degree Days 13 24  
Month to date heating degree days 850 739  
Since 1 July heating degree days 3566 3467  
Cooling Degree Days 0 0  
Month to date cooling degree days 0 0  
Year to date cooling degree days 0 0  
Growing Degree Days 3 (Base 50)    
Moisture  
Dew Point 29 °F    
Average Humidity 43    
Maximum Humidity 65    
Minimum Humidity 20    
Precipitation  
Precipitation 0.00 in 0.02 in 0.18 in (2004)
Month to date precipitation 0.16 0.47  
Year to date precipitation 0.34 0.87  
Snow  
Snow 0.00 in - - ()
Month to date snowfall 2.5  
Since 1 July snowfall 12.7  
Snow Depth 0.00 in    
Sea Level Pressure  
Sea Level Pressure 29.59 in    
Wind  
Wind Speed 13 mph (NNE)    
Max Wind Speed 24 mph    
Max Gust Speed 30 mph    
Visibility 10 miles    
Events      
T = Trace of Precipitation, MM = Missing Value Source: NWS Daily Summary

Daily Weather History Graph

Daily Weather History Graph

Search for Another Location

Airport or City:

Trip Planner

Search our weather history database for the weather conditions in past years. The results will help you decide how hot, cold, wet, or windy it might be!

Date:

Astronomy

Feb. 28, 2014 Rise Set
Actual Time 7:17 AM CST 6:39 PM CST
Civil Twilight 6:52 AM CST 7:05 PM CST
Nautical Twilight 6:22 AM CST 7:35 PM CST
Astronomical Twilight 5:52 AM CST 8:05 PM CST
Moon 6:33 AM CST (2/28) 6:18 PM CST (2/28)
Length of Visible Light 12h 13m
Length of Day
11h 21m
Waning Crescent, 1% of the Moon is Illuminated
Feb 28
Waning Crescent
Mar 1
New
Mar 8
First Quarter
Mar 16
Full
Mar 23
Last Quarter

Hourly Weather History & Observations

Time (CST) Temp. Windchill Dew Point Humidity Pressure Visibility Wind Dir Wind Speed Gust Speed Precip Events Conditions
12:16 AM 59.0 °F - 35.1 °F 41% 29.49 in 8.0 mi SW 24.2 mph 27.6 mph N/A   Mostly Cloudy
12:35 AM 57.0 °F - 36.0 °F 45% 29.49 in 6.0 mi SSW 16.1 mph - N/A   Haze
12:53 AM 55.0 °F - 36.0 °F 49% 29.40 in 9.0 mi South 16.1 mph 23.0 mph N/A   Mostly Cloudy
1:01 AM 54.0 °F - 34.0 °F 47% 29.47 in 9.0 mi South 15.0 mph - N/A   Scattered Clouds
1:53 AM 51.1 °F - 36.0 °F 56% 29.40 in 10.0 mi South 10.4 mph - N/A   Overcast
2:53 AM 48.0 °F - 36.0 °F 63% 29.38 in 10.0 mi South 4.6 mph - N/A   Clear
3:53 AM 45.0 °F 42.6 °F 34.0 °F 65% 29.37 in 10.0 mi SSW 4.6 mph - N/A   Clear
4:53 AM 44.1 °F 42.5 °F 33.1 °F 65% 29.39 in 10.0 mi West 3.5 mph - N/A   Partly Cloudy
5:53 AM 43.0 °F 38.2 °F 30.9 °F 62% 29.43 in 10.0 mi West 8.1 mph - N/A   Clear
6:53 AM 42.1 °F 36.1 °F 30.0 °F 62% 29.49 in 10.0 mi NW 10.4 mph - N/A   Clear
7:53 AM 37.9 °F 32.1 °F 25.0 °F 60% 29.56 in 10.0 mi NW 8.1 mph - N/A   Clear
8:53 AM 41.0 °F 31.6 °F 24.1 °F 51% 29.59 in 10.0 mi NNW 20.7 mph 27.6 mph N/A   Clear
9:53 AM 45.0 °F 37.4 °F 24.1 °F 44% 29.63 in 10.0 mi NW 18.4 mph - N/A   Clear
10:53 AM 54.0 °F - 26.1 °F 34% 29.62 in 10.0 mi NNW 20.7 mph 27.6 mph N/A   Clear
11:53 AM 60.1 °F - 27.0 °F 28% 29.60 in 10.0 mi North 16.1 mph 28.8 mph N/A   Clear
12:53 PM 64.0 °F - 27.0 °F 25% 29.59 in 10.0 mi North 16.1 mph - N/A   Clear
1:53 PM 66.9 °F - 27.0 °F 22% 29.59 in 10.0 mi NNE 15.0 mph - N/A   Clear
2:53 PM 69.1 °F - 27.0 °F 21% 29.60 in 10.0 mi NE 10.4 mph - N/A   Clear
3:53 PM 68.0 °F - 27.0 °F 21% 29.61 in 10.0 mi NNE 15.0 mph - N/A   Clear
4:53 PM 64.9 °F - 26.1 °F 23% 29.64 in 10.0 mi ENE 15.0 mph - N/A   Clear
5:53 PM 61.0 °F - 26.1 °F 26% 29.68 in 10.0 mi ENE 13.8 mph - N/A   Clear
6:53 PM 55.9 °F - 28.0 °F 34% 29.73 in 10.0 mi East 11.5 mph - N/A   Clear
7:53 PM 52.0 °F - 28.9 °F 41% 29.77 in 10.0 mi ENE 16.1 mph - N/A   Clear
8:53 PM 48.9 °F - 28.9 °F 46% 29.81 in 10.0 mi ENE 11.5 mph - N/A   Clear
9:53 PM 46.0 °F 39.3 °F 28.9 °F 51% 29.83 in 10.0 mi ENE 16.1 mph - N/A   Clear
10:53 PM 37.0 °F 27.7 °F 24.1 °F 59% 29.87 in 10.0 mi NE 16.1 mph - N/A   Clear
11:53 PM 34.0 °F 26.0 °F 23.0 °F 64% 29.91 in 10.0 mi NE 10.4 mph - N/A   Clear